| time (UTC) | temp C | wind direction | speed KPH | gust KPH | rain 1hr cm | rain 24hr cm | rain mn cm | humidity % | barometer mb |
| 20260506200034 | 31 | 252 | 4.8 | 32.2 | 0.00 | 0.00 | 0.00 | 53 | 1015.1 |
| 20260506194534 | 31 | 198 | 8.0 | 17.7 | 0.00 | 0.00 | 0.00 | 54 | 1015.3 |
| 20260506193031 | 30 | 247 | 6.4 | 22.5 | 0.00 | 0.00 | 0.00 | 54 | 1015.5 |
| 20260506191526 | 30 | 203 | 9.7 | 16.1 | 0.00 | 0.00 | 0.00 | 56 | 1015.7 |
| 20260506190022 | 30 | 167 | 11.3 | 20.9 | 0.00 | 0.00 | 0.00 | 57 | 1016.1 |
| 20260506184520 | 30 | 277 | 11.3 | 24.1 | 0.00 | 0.00 | 0.00 | 56 | 1016.4 |
| 20260506183018 | 29 | 259 | 6.4 | 16.1 | 0.00 | 0.00 | 0.00 | 57 | 1016.7 |
| 20260506181516 | 29 | 234 | 11.3 | 29.0 | 0.00 | 0.00 | 0.00 | 60 | 1016.9 |
| 20260506180014 | 28 | 231 | 14.5 | 25.7 | 0.00 | 0.00 | 0.00 | 58 | 1017.2 |
| 20260506174512 | 28 | 225 | 16.1 | 29.0 | 0.00 | 0.00 | 0.00 | 60 | 1017.5 |
| 20260506173012 | 28 | 259 | 14.5 | 29.0 | 0.00 | 0.00 | 0.00 | 61 | 1017.6 |
| 20260506171511 | 28 | 236 | 12.9 | 30.6 | 0.00 | 0.00 | 0.00 | 61 | 1017.9 |
| 20260506170008 | 28 | 247 | 9.7 | 25.7 | 0.00 | 0.00 | 0.00 | 62 | 1018.2 |
| 20260506164506 | 27 | 217 | 1.6 | 25.7 | 0.00 | 0.00 | 0.00 | 63 | 1018.3 |
| 20260506163004 | 27 | 178 | 8.0 | 25.7 | 0.00 | 0.00 | 0.00 | 65 | 1018.7 |
| 20260506161502 | 27 | 261 | 12.9 | 16.1 | 0.00 | 0.00 | 0.00 | 65 | 1018.7 |
| 20260506160059 | 26 | 224 | 8.0 | 17.7 | 0.00 | 0.00 | 0.00 | 66 | 1018.8 |
| 20260506154619 | 26 | 241 | 8.0 | 19.3 | 0.00 | 0.00 | 0.00 | 69 | 1018.9 |
| 20260506153107 | 26 | 240 | 14.5 | 24.1 | 0.00 | 0.00 | 0.00 | 68 | 1018.9 |
| 20260506151557 | 25 | 250 | 4.8 | 24.1 | 0.00 | 0.00 | 0.00 | 71 | 1018.9 |
| 20260506150049 | 25 | 237 | 17.7 | 25.7 | 0.00 | 0.00 | 0.00 | 71 | 1019.1 |
| 20260506144546 | 25 | 279 | 8.0 | 19.3 | 0.00 | 0.00 | 0.00 | 74 | 1018.5 |
| 20260506143051 | 23 | 206 | 12.9 | 29.0 | 0.00 | 0.00 | 0.00 | 74 | 1018.7 |
| 20260506141538 | 23 | 259 | 6.4 | 17.7 | 0.00 | 0.00 | 0.00 | 76 | 1018.6 |
| 20260506140032 | 23 | 193 | 9.7 | 22.5 | 0.00 | 0.00 | 0.00 | 77 | 1018.8 |
| 20260506134529 | 22 | 228 | 8.0 | 24.1 | 0.00 | 0.00 | 0.00 | 79 | 1018.6 |
| 20260506133026 | 21 | 209 | 11.3 | 19.3 | 0.00 | 0.00 | 0.00 | 80 | 1018.3 |
| 20260506131522 | 21 | 222 | 8.0 | 24.1 | 0.00 | 0.00 | 0.00 | 82 | 1018.1 |
| 20260506130018 | 20 | 221 | 6.4 | 14.5 | 0.00 | 0.00 | 0.00 | 84 | 1018.2 |
| 20260506124514 | 20 | 210 | 4.8 | 16.1 | 0.00 | 0.00 | 0.00 | 86 | 1018.2 |
| 20260506123011 | 18 | 219 | 6.4 | 17.7 | 0.00 | 0.00 | 0.00 | 88 | 1018.2 |
| 20260506121505 | 18 | 193 | 6.4 | 16.1 | 0.00 | 0.00 | 0.00 | 90 | 1017.8 |
| 20260506120002 | 17 | 209 | 4.8 | 12.9 | 0.00 | 0.00 | 0.00 | 92 | 1018.0 |
| 20260506114500 | 16 | 200 | 3.2 | 11.3 | 0.00 | 0.00 | 0.00 | 93 | 1017.7 |
| 20260506113100 | 16 | 197 | 3.2 | 9.7 | 0.00 | 0.00 | 0.00 | 94 | 1017.6 |
| 20260506111600 | 16 | 184 | 1.6 | 6.4 | 0.00 | 0.00 | 0.00 | 95 | 1017.4 |
| 20260506110104 | 15 | 179 | 1.6 | 4.8 | 0.00 | 0.00 | 0.00 | 95 | 1017.3 |
| 20260506104600 | 15 | 180 | 1.6 | 6.4 | 0.00 | 0.00 | 0.00 | 95 | 1017.1 |
| 20260506103058 | 15 | 185 | 1.6 | 6.4 | 0.00 | 0.00 | 0.00 | 95 | 1016.8 |
| 20260506101604 | 15 | 204 | 1.6 | 4.8 | 0.00 | 0.00 | 0.00 | 94 | 1017.0 |
| 20260506100055 | 15 | 207 | 1.6 | 4.8 | 0.00 | 0.00 | 0.00 | 94 | 1017.1 |
| 20260506094616 | 16 | 207 | 1.6 | 4.8 | 0.00 | 0.00 | 0.00 | 93 | 1017.1 |
| 20260506093055 | 16 | 207 | 1.6 | 4.8 | 0.00 | 0.00 | 0.00 | 93 | 1017.1 |
| 20260506091551 | 16 | 205 | 1.6 | 4.8 | 0.00 | 0.00 | 0.00 | 92 | 1017.0 |
| 20260506090050 | 16 | 208 | 1.6 | 6.4 | 0.00 | 0.00 | 0.00 | 92 | 1017.0 |
| 20260506084550 | 16 | 205 | 4.8 | 11.3 | 0.00 | 0.00 | 0.00 | 92 | 1016.9 |
| 20260506083049 | 16 | 192 | 3.2 | 8.0 | 0.00 | 0.00 | 0.00 | 92 | 1016.8 |
| 20260506081550 | 16 | 198 | 3.2 | 9.7 | 0.00 | 0.00 | 0.00 | 91 | 1017.0 |
| 20260506073047 | 16 | 175 | 3.2 | 9.7 | 0.00 | 0.00 | 0.00 | 92 | 1016.7 |
| 20260506071545 | 17 | 174 | 0.0 | 4.8 | 0.00 | 0.00 | 0.00 | 91 | 1016.9 |
| 20260506061539 | 17 | 169 | 3.2 | 9.7 | 0.00 | 0.00 | 0.00 | 92 | 1017.2 |
| 20260506044538 | 16 | 173 | 0.0 | 4.8 | 0.00 | 0.00 | 0.00 | 91 | 1017.9 |
| 20260506043025 | 17 | 175 | 0.0 | 3.2 | 0.00 | 0.00 | 0.00 | 90 | 1017.9 |
| 20260506041523 | 17 | 171 | 0.0 | 3.2 | 0.00 | 0.00 | 0.00 | 89 | 1017.9 |
| 20260506040046 | 17 | 162 | 1.6 | 8.0 | 0.00 | 0.00 | 0.00 | 89 | 1017.8 |
| 20260506034520 | 17 | 161 | 4.8 | 8.0 | 0.00 | 0.00 | 0.00 | 89 | 1018.0 |
| 20260506033119 | 17 | 165 | 1.6 | 4.8 | 0.00 | 0.00 | 0.00 | 87 | 1018.2 |
| 20260506031536 | 17 | 165 | 0.0 | 1.6 | 0.00 | 0.00 | 0.00 | 86 | 1018.2 |
| 20260506030020 | 18 | 156 | 1.6 | 8.0 | 0.00 | 0.00 | 0.00 | 84 | 1018.2 |
| 20260506024521 | 18 | 140 | 4.8 | 11.3 | 0.00 | 0.00 | 0.00 | 83 | 1018.1 |
| 20260506023016 | 18 | 143 | 6.4 | 11.3 | 0.00 | 0.00 | 0.00 | 83 | 1017.9 |
| 20260506021516 | 18 | 156 | 4.8 | 11.3 | 0.00 | 0.00 | 0.00 | 82 | 1017.8 |
| 20260506020017 | 18 | 155 | 4.8 | 11.3 | 0.00 | 0.00 | 0.00 | 82 | 1017.7 |
| 20260506014515 | 18 | 149 | 6.4 | 12.9 | 0.00 | 0.00 | 0.00 | 82 | 1017.5 |
| 20260506013015 | 19 | 139 | 9.7 | 14.5 | 0.00 | 0.00 | 0.00 | 81 | 1017.4 |
| 20260506011515 | 19 | 142 | 8.0 | 14.5 | 0.00 | 0.00 | 0.00 | 80 | 1017.5 |
| 20260506010014 | 20 | 149 | 9.7 | 14.5 | 0.00 | 0.00 | 0.00 | 79 | 1017.5 |
| 20260506004522 | 20 | 146 | 6.4 | 16.1 | 0.00 | 0.00 | 0.00 | 78 | 1017.4 |
| 20260506003015 | 20 | 142 | 8.0 | 16.1 | 0.00 | 0.00 | 0.00 | 77 | 1017.3 |
| 20260506001514 | 20 | 135 | 11.3 | 19.3 | 0.00 | 0.00 | 0.00 | 75 | 1017.0 |
| 20260506000011 | 21 | 132 | 12.9 | 22.5 | 0.00 | 0.00 | 0.00 | 73 | 1016.9 |
| 20260505234511 | 21 | 115 | 12.9 | 19.3 | 0.00 | 0.00 | 0.00 | 72 | 1016.9 |
| 20260505233008 | 22 | 139 | 16.1 | 22.5 | 0.00 | 0.00 | 0.00 | 70 | 1017.3 |
| 20260505231508 | 22 | 153 | 16.1 | 25.7 | 0.00 | 0.00 | 0.00 | 69 | 1017.0 |
| 20260505230006 | 22 | 155 | 12.9 | 24.1 | 0.00 | 0.00 | 0.00 | 69 | 1017.1 |
| 20260505224506 | 22 | 140 | 20.9 | 30.6 | 0.00 | 0.00 | 0.00 | 67 | 1017.0 |
| 20260505223005 | 22 | 133 | 19.3 | 30.6 | 0.00 | 0.00 | 0.00 | 66 | 1016.9 |
| 20260505221506 | 23 | 153 | 20.9 | 30.6 | 0.00 | 0.00 | 0.00 | 66 | 1016.9 |
| 20260505220002 | 23 | 126 | 14.5 | 27.4 | 0.00 | 0.00 | 0.00 | 66 | 1017.0 |
| 20260505214502 | 23 | 111 | 16.1 | 29.0 | 0.00 | 0.00 | 0.00 | 65 | 1017.0 |
| 20260505213000 | 23 | 109 | 19.3 | 29.0 | 0.00 | 0.00 | 0.00 | 66 | 1017.2 |
| 20260505211611 | 23 | 130 | 14.5 | 30.6 | 0.00 | 0.00 | 0.00 | 65 | 1017.1 |
| 20260505204602 | 23 | 138 | 19.3 | 30.6 | 0.00 | 0.00 | 0.00 | 64 | 1017.1 |
| 20260505203058 | 23 | 122 | 20.9 | 29.0 | 0.00 | 0.00 | 0.00 | 64 | 1017.1 |
| 20260505201600 | 24 | 122 | 16.1 | 29.0 | 0.00 | 0.00 | 0.00 | 63 | 1017.3 |